Regional Weather Roundup
Issued by NWS

Home | Current Version | Previous Version | Graphics & Text | Print | Product List | Glossary Off
Versions: 1 2 3 4 5 6 7 8 9 10 11 12 13 14 15 16 17 18 19 20 21 22 23 24 25 26 27 28 29 30 31 32 33 34 35 36 37 38 39 40 41 42 43 44 45 46 47 48 49 50

000
ASUS43 KDMX 161601
RWRIA

WEATHER ROUNDUP FOR IOWA
NATIONAL WEATHER SERVICE DES MOINES IA
1000 AM CST MON JAN 16 2017

NOTE: "FAIR" INDICATES FEW OR NO CLOUDS BELOW 12,000 FEET WITH NO
SIGNIFICANT WEATHER AND/OR OBSTRUCTIONS TO VISIBILITY.

* - THESE STATIONS ARE NOT NWS STATIONS...THUS NOT UNDER NWS
QUALITY CONTROL.  THEY ALSO DO NOT REPORT WEATHER SUCH
AS PRECIPITATION OR FOG.

IAZ001>003-012>014-020>022-031>034-043>046-161700-
   NORTHWEST IOWA

CITY           SKY/WX    TMP DP  RH WIND       PRES   REMARKS
CARROLL *      CLOUDY    32  32 100 E12       30.01F FOG     WCI  23
CHEROKEE *     CLOUDY    31  31 100 E7        30.04S WCI  25
DENISON *      LGT RAIN  32  32 100 E10       29.98S WCI  24
LE MARS *      CLOUDY    32  30  93 NE6       30.05R FOG     WCI  26
ORANGE CITY *  MIX PCPN  30  30 100 NE5       30.04S WCI  25
SHELDON *      CLOUDY    30  30 100 E9        30.05R FOG     WCI  22
SIOUX CITY     CLOUDY    34  31  88 NE7       30.03S WCI  28
SPENCER        CLOUDY    30  29  96 E9        30.06R FOG     WCI  22
STORM LAKE *   FOG       30  30 100 E15G21    30.02F VSB 1/4 WCI  19
$$

IAZ055>058-069>071-079>083-090>094-161700-
   SOUTHWEST IOWA

CITY           SKY/WX    TMP DP  RH WIND       PRES   REMARKS
ATLANTIC *     LGT RAIN  32  32 100 E13       29.98F WCI  22
AUDUBON *      MIX PCPN  32  30  93 E8        30.00S WCI  25
CLARINDA *     CLOUDY    34  34 100 NE8       29.96F WCI  27
COUNCIL BLFS * LGT RAIN  32  32 100 NE10      29.96F WCI  24
CRESTON *      LGT RAIN  32  32 100 E15G22    29.97F WCI  22
HARLAN  *      LGT RAIN  32  32 100 E6G13     30.01F WCI  26
LAMONI         LGT RAIN  33  32  96 E12       29.95F FOG     WCI  24
RED OAK *      LGT SNOW  34  32  93 NE10G16   29.96F WCI  26
SHENANDOAH *   LGT RAIN  34  32  93 NE10      29.95S WCI  26
$$

IAZ047>049-059>061-072>074-084-161700-
   CENTRAL IOWA

CITY           SKY/WX    TMP DP  RH WIND       PRES   REMARKS
AMES           FRZ RAIN  32  32 100 E9        30.04F FOG     WCI  24
ANKENY *       LGT RAIN  32  32 100 MISG      30.05F
BOONE *        MIX PCPN  32  32 100 MISG      30.02F
CHARITON *     LGT RAIN  32  32 100 E14       30.00F WCI  22
DES MOINES     RAIN      33  32  96 E8        30.03F FOG     WCI  26
GRINNELL*      MIX PCPN  32  32  99 E9        30.06F WCI  24
KNOXVILLE *    LGT RAIN  32  32 100 E12G18    30.02F WCI  23
MARSHALLTOWN   FRZ RAIN  32  32 100 E14       30.05F FOG     WCI  22
NEWTON *       CLOUDY    32  32 100 E14       30.04F FOG     WCI  22
PELLA *        LGT RAIN  32  32  99 E7        30.06F WCI  26
PERRY *        LGT RAIN  33  33 100 E8        30.02F WCI  25
$$

IAZ004>006-015-016-023>025-035-036-161700-
   NORTH CENTRAL IOWA

CITY           SKY/WX    TMP DP  RH WIND       PRES   REMARKS
ALGONA *       CLOUDY    32  32 100 E7        30.07R FOG     WCI  26
CLARION *      CLOUDY    32  32 100 E10       30.06F FOG     WCI  24
ESTHERVILLE    CLOUDY    28  28 100 NE9       30.07S FOG     WCI  19
FORT DODGE *   CLOUDY    30  28  93 CALM      30.05F
MASON CITY     CLOUDY    30  29  96 E9        30.11R FOG     WCI  22
FOREST CITY *  CLOUDY    32  32 100 E7        30.09S FOG     WCI  26
WEBSTER CITY * CLOUDY    32  32 100 E15       30.03F FOG     WCI  22
IOWA FALLS *   MIX PCPN  32  31  96 E8        30.08F WCI  25
$$

IAZ007>011-017>019-026>030-037>042-050>054-066-161700-
   NORTHEAST IOWA

CITY           SKY/WX    TMP DP  RH WIND       PRES   REMARKS
CEDAR RAPIDS   FRZ RAIN  32  31  96 E9        30.10F FOG     WCI  24
CHARLES CITY * CLOUDY    30  30 100 SE10      30.11F FOG     WCI  21
CLINTON *      MIX PCPN  32  31  96 E12       30.17F FOG     WCI  23
DECORAH *      CLOUDY    30  28  93 E7        30.13S FOG     WCI  23
DUBUQUE        FRZ RAIN  31  30  96 SE8       30.15F FOG     WCI  23
MONTICELLO *   CLOUDY    32  32 100 E8        30.14F FOG     WCI  25
OELWEIN *      MIX PCPN  32  32 100 SE12      30.12F WCI  23
WATERLOO       FRZ RAIN  32  30  92 E10       30.10F FOG     WCI  24
$$

IAZ064-065-067-068-078-161700-
   EAST CENTRAL IOWA

CITY           SKY/WX    TMP DP  RH WIND       PRES   REMARKS
DAVENPORT      MIX PCPN  32  31  96 E12       30.14F FOG     WCI  23
IOWA CITY      LGT RAIN  34  32  92 E10       30.13F FOG     WCI  26
MUSCATINE *    LGT RAIN  34  32  93 E9        30.13F WCI  26
QUAD CITIES    LGT RAIN  34  32  92 E12       30.15F FOG     WCI  25
$$

IAZ062-063-075>077-085>089-095>099-161700-
   SOUTHEAST IOWA

CITY           SKY/WX    TMP DP  RH WIND       PRES   REMARKS
BURLINGTON     RAIN      34  34 100 E12       30.09F FOG     WCI  25
FAIRFIELD *    CLOUDY    32  32 100 E12       30.08S FOG     WCI  23
FORT MADISON * LGT RAIN  34  34 100 E12       30.08F WCI  25
KEOKUK *       CLOUDY    34  34 100 E10       30.08S FOG     WCI  26
OSKALOOSA *    LGT RAIN  32  32 100 E12       30.06F WCI  23
CENTERVILLE *  LGT RAIN  32  32 100 CALM      30.02F
OTTUMWA        LGT RAIN  33  31  92 E15       30.05F FOG     WCI  23
WASHINGTON *   LGT RAIN  32  32 100 E12       30.10F WCI  23
$$

ABBREVIATIONS USED IN REMARKS
   TC - TEMPERATURES IN CELSIUS
  WCI - WIND CHILL INDEX
   HX - HEAT INDEX
  VSB - VISIBILITY
$$





USA.gov is the U.S. government's official web portal to all federal, state and local government web resources and services.